Regional Weather Roundup
Issued by NWS Cleveland, OH

Home | Current Version | Previous Version | Graphics & Text | Print | Product List | Glossary On
Versions: 1 2 3 4 5 6 7 8 9 10 11 12 13 14 15 16 17 18 19 20 21 22 23 24 25 26 27 28 29 30 31 32 33 34 35 36 37 38 39 40 41 42 43 44 45 46 47 48 49 50
000
ASUS41 KCLE 221300
RWRCLE
OHIO REGIONAL WEATHER ROUNDUP
NATIONAL WEATHER SERVICE WILMINGTON, OH
900 AM EDT FRI SEP 22 2017

NOTE: "FAIR" INDICATES FEW OR NO CLOUDS BELOW 12,000 FEET WITH NO
SIGNIFICANT WEATHER AND/OR OBSTRUCTIONS TO VISIBILITY.

OHZ001>008-015>018-024>027-034-035-043-044-221400-
   NORTHWEST OHIO

CITY           SKY/WX    TMP DP  RH WIND       PRES   REMARKS
DEFIANCE       FAIR      71  67  87 CALM      30.12S FOG
FINDLAY        FAIR      73  66  78 SE3       30.12S
TOLEDO EXPRESS FAIR      72  71  97 E3        30.12R
TOLEDO EXEC    FAIR      71  68  90 E3        30.13S FOG
LIMA           FAIR      72  67  84 S6        30.13S
$$

OHZ009>014-019>023-028>033-038-089-221400-
   NORTHEAST OHIO

CITY           SKY/WX    TMP DP  RH WIND       PRES   REMARKS
CLE-HOPKINS    FAIR      70  63  78 SE5       30.15S
CLE-LAKEFRONT  FAIR      71  60  68 VRB3      30.12S
CUY CO. ARPT   MOSUNNY   72  63  73 SE6       30.14S
LORAIN-ELYRIA  FAIR      67  60  78 S3        30.14S
ASHTABULA      FAIR      64  62  93 S3        30.16S
AKRON-CANTON   PTSUNNY   69  63  81 CALM      30.15S
WOOSTER        NOT AVBL
MANSFIELD      FAIR      69  67  93 CALM      30.15S
YOUNGSTOWN     PTSUNNY   66  63  90 E3        30.15S
$$

OHZ042-051>053-060>062-070>072-077>081-221400-
  SOUTHWEST OHIO

CITY           SKY/WX    TMP DP  RH WIND       PRES   REMARKS
CINC-COVINGTON FAIR      74  71  91 CALM      30.13R
CINC-LUNKEN    FAIR      69  69 100 CALM      30.13R FOG
HAMILTON       FAIR      72  70  93 CALM      30.13S FOG
DAYTON         NOT AVBL
WRIGHT-PAT AFB NOT AVBL
DAYTON GENERAL PTSUNNY   72  68  87 CALM      30.13S
WILMINGTON     PTSUNNY   71  69  93 CALM      30.14R
$$

OHZ036-037-039>041-045>050-054>059-063>069-073>076-082>088-221400-
  CENTRAL AND SOUTHEAST OHIO

CITY           SKY/WX    TMP DP  RH WIND       PRES   REMARKS
COLUMBUS       FAIR      71  67  87 CALM      30.13S
OSU AIRPORT    PTSUNNY   71  69  93 CALM      30.14R
BOLTON FIELD   MOSUNNY   70  66  88 CALM      30.15R FOG
RICKENBACK AFB NOT AVBL
NEWARK         FAIR      67  65  93 CALM      30.14S
MARION         FAIR      72  65  78 CALM      30.14S
LANCASTER      FAIR      67  65  93 CALM      30.15R
ZANESVILLE     CLOUDY    66  63  90 CALM      30.14S
NEW PHILLY     FAIR      65  63  93 CALM      30.15S
$$




USA.gov is the U.S. government's official web portal to all federal, state and local government web resources and services.